#timestamp,LO_Frequency,Hit,StdDev 
1642230015.8,286046998.6,N
1642230035.6,286047000.3,N
1642230055.4,286047001.9,N
1642230075.3,286047004.4,N
1642230095.1,286047001.3,N
1642230115.9,286047001.5,N
1642230135.7,286047001.6,N
1642230155.5,286047000.5,N
1642230175.4,286046998.1,N
1642230195.2,286047001.0,N
1642230215.0,286047001.0,N
1642230215.9,286047001.0,N
1642230235.8,286046996.7,N
1642230255.6,286046998.8,N
1642230275.5,286047000.6,N
1642230295.3,286047000.2,N
1642230315.1,286047002.0,N
1642230335.9,286047002.2,N
1642230355.7,286047002.1,N
1642230375.5,286047002.0,N
1642230395.4,286047002.0,N
1642230415.2,286047001.3,N
1642230435.1,286047003.8,N
1642230436.0,286047003.8,N
1642230455.8,286047003.3,N
1642230475.6,286047003.2,N
1642230495.5,286047003.9,N
1642230515.3,286047004.4,N
1642230535.1,286047004.0,N
1642230555.9,286046999.7,N
1642230575.7,286046999.7,N
1642230595.6,286047002.5,N
1642230615.4,286047002.5,N
1642230635.2,286047001.9,N
1642230655.1,286047002.3,N
1642230656.0,286047002.3,N
1642230675.8,286047002.5,N
1642230695.6,286047001.0,N
1642230715.5,286046998.8,N
1642230735.3,286046998.5,N
1642230755.2,286046998.8,N
1642230775.9,286047000.8,N
1642230795.7,286047002.8,N
1642230815.6,286046999.9,N
1642230835.4,286047001.0,N
1642230855.2,286047002.8,N
1642230875.1,286047002.6,N
1642230876.0,286047002.6,N
1642230895.8,286047001.7,N
1642230915.7,286047002.5,N
1642230935.5,286047001.5,N
1642230955.3,286047001.6,N
1642230975.2,286047003.9,N
1642230995.0,286047001.7,N
1642230995.9,286047001.7,N
1642231015.7,286047001.6,N
1642231035.6,286047002.3,N
1642231055.4,286047000.1,N
1642231075.3,286046999.9,N
1642231095.1,286047000.0,N
1642231115.8,286046998.9,N
1642231135.7,286047001.0,N
1642231155.5,286047000.4,N
1642231175.4,286047000.3,N
1642231195.2,286047000.6,N
1642231215.0,286046998.1,N
1642231215.9,286046998.1,N
1642231235.8,286047000.1,N
1642231255.6,286047002.3,N
1642231275.5,286047002.3,N
1642231295.3,286047001.6,N
1642231315.1,286047001.6,N
1642231335.9,286047001.7,N
1642231355.7,286047004.1,Y
1642231375.6,286047000.0,P
1642231395.4,286046998.2,P
1642231415.2,286046996.6,N
1642231435.1,286046999.6,N
1642231436.0,286046999.6,N
1642231455.8,286046998.5,N
1642231475.6,286046998.6,N
1642231495.5,286046998.9,N
1642231515.3,286046998.8,N
1642231535.2,286047000.7,N
1642231555.9,286047000.5,N
1642231575.7,286047000.2,N
1642231595.6,286047002.6,N
1642231615.4,286047000.0,N
1642231635.2,286047000.6,N
1642231655.1,286047000.5,N
1642231656.0,286047000.5,N
1642231675.8,286046999.0,N
1642231695.7,286046998.6,N
1642231715.5,286046996.5,N
1642231735.3,286046997.4,N
1642231755.2,286046999.1,N
1642231775.0,286046998.4,N
1642231775.9,286046998.4,N
1642231795.8,286046998.8,N
1642231815.6,286047000.7,N
1642231835.4,286046998.1,N
1642231855.3,286046998.2,N
1642231875.1,286046998.7,N
1642231895.8,286046998.5,N
1642231915.7,286046999.0,N
1642231935.5,286046999.5,N
1642231955.4,286046999.5,N
1642231975.2,286046997.1,N
1642231995.0,286046994.1,Y
1642231995.9,286046994.1,P
1642232015.8,286046991.7,P
1642232035.6,286046991.8,N
1642232055.5,286046996.2,N
1642232075.3,286046995.2,N
1642232095.1,286046997.2,N
1642232115.9,286046998.3,N
1642232135.7,286047001.0,N
1642232155.6,286047000.0,N
1642232175.4,286046999.7,N
1642232195.2,286047002.2,N
1642232215.1,286047002.6,N
1642232216.0,286047002.6,N
1642232235.8,286047002.3,N
1642232255.6,286047001.4,N
1642232275.5,286046999.7,N
1642232295.3,286046999.8,N
1642232315.2,286047002.1,N
1642232335.9,286047001.8,N
1642232355.7,286047002.1,N
1642232375.6,286047001.8,N
1642232395.4,286047001.8,N
1642232415.2,286047001.6,N
1642232435.1,286047003.3,N
1642232436.0,286047003.3,N
1642232455.8,286047004.8,N
1642232475.7,286047002.9,N
1642232495.5,286047003.1,N
1642232515.3,286047004.3,N
1642232535.2,286047004.1,N
1642232555.0,286047004.4,N
1642232555.9,286047004.4,N
1642232575.8,286047001.9,N
1642232595.6,286047002.2,N
1642232615.4,286047000.5,N
1642232635.3,286047001.2,N
1642232655.1,286047000.8,N
1642232675.8,286047000.3,N
1642232695.7,286047002.5,N
1642232715.5,286047001.7,N
1642232735.4,286047004.4,Y
1642232755.2,286047001.0,P
1642232775.0,286046999.7,N
1642232775.9,286046999.7,N
1642232795.8,286047002.6,N
1642232815.6,286046998.1,N
1642232835.4,286047001.1,N
1642232855.3,286046996.8,N
1642232875.1,286046995.6,N
1642232895.9,286046997.9,N
1642232915.7,286046995.4,N
1642232935.5,286046996.2,N
1642232955.4,286046994.9,N
1642232975.2,286046996.7,N
1642232995.1,286046997.0,N
1642232996.0,286046997.0,N
1642233015.8,286046995.8,N
1642233035.6,286046996.4,N
1642233055.5,286046993.4,N
1642233075.3,286046995.3,N
1642233095.1,286046997.6,N
1642233115.9,286046995.3,N
1642233135.7,286046997.0,N
1642233155.6,286046998.3,N
1642233175.4,286047000.5,N
1642233195.2,286046998.2,N
1642233215.1,286046998.1,N
1642233216.0,286046998.1,N
1642233235.8,286047001.1,N
1642233255.6,286046998.6,N
1642233275.5,286046999.6,N
1642233295.3,286046998.5,N
1642233315.2,286047000.7,N
1642233335.9,286046997.5,N
1642233355.7,286046996.1,N
1642233375.6,286046994.4,Y
1642233395.4,286046998.2,P
1642233415.2,286046998.2,P
1642233435.1,286046998.2,P
1642233436.0,286046998.2,Y
1642233455.8,286047002.3,P
1642233475.7,286047004.1,N
1642233495.5,286047006.0,N
1642233515.3,286047001.9,N
1642233535.2,286047002.0,N
1642233555.0,286047003.9,N
1642233555.9,286047003.9,N
1642233575.8,286047003.5,N
1642233595.6,286047003.3,N
